{"data":{"norad_id":43249,"intl_designator":"2018-030A","name":"IRIDIUM 144","alt_names":[],"object_type":"PAYLOAD","status":"ACTIVE","operator":null,"country":"US","launch_date":"2018-03-30","launch_site_code":"AFWTR","launch_vehicle":null,"mission":null,"orbit_class":"UNKNOWN","rcs_meters":null,"size_class":null,"mass_kg":null,"dimensions":null,"purposes":["comms"],"wikipedia_slug":null,"has_3d_model":false,"image_url":null,"decayed_at":null,"tle_current":{"epoch":"2026-05-25T03:17:35.337120Z","epoch_age_seconds":59851,"freshness":"FRESH","line1":"1 43249U 18030A   26145.13721455  .00000212  00000+0  68716-4 0  9996","line2":"2 43249  86.3938 300.0416 0002057  90.6180 269.5252 14.34218157426833","mean_motion":14.34218157,"eccentricity":0.0002057,"inclination_deg":86.3938,"raan_deg":300.0416,"arg_perigee_deg":90.618,"mean_anomaly_deg":269.5252,"bstar":6.8716e-5,"rev_number":42683,"period_min":100.40313553219,"perigee_km":776.19385194268,"apogee_km":779.13774921484,"semimajor_km":7155.8028005788,"source":"CELESTRAK","updated_at":"2026-05-25T13:38:14.807008Z"}}}